| time (UTC) | temp C | wind direction | speed KPH | gust KPH | rain 1hr cm | rain 24hr cm | rain mn cm | humidity % | barometer mb |
| 20260504204514 | 11 | 212 | 12.9 | 22.5 | 0.00 | 0.00 | 0.00 | 43 | 1014.8 |
| 20260504203019 | 11 | 291 | 6.4 | 20.9 | 0.00 | 0.00 | 0.00 | 40 | 1014.9 |
| 20260504201504 | 10 | 271 | 8.0 | 20.9 | 0.00 | 0.00 | 0.00 | 43 | 1015.1 |
| 20260504200008 | 10 | 249 | 11.3 | 27.4 | 0.00 | 0.00 | 0.00 | 48 | 1015.2 |
| 20260504194512 | 10 | 236 | 14.5 | 25.7 | 0.00 | 0.00 | 0.00 | 51 | 1015.5 |
| 20260504193004 | 10 | 254 | 11.3 | 24.1 | 0.00 | 0.00 | 0.00 | 49 | 1015.4 |
| 20260504191506 | 10 | 255 | 6.4 | 17.7 | 0.00 | 0.00 | 0.00 | 52 | 1015.5 |
| 20260504190004 | 10 | 223 | 4.8 | 11.3 | 0.00 | 0.00 | 0.00 | 53 | 1015.6 |
| 20260504184510 | 8 | 243 | 9.7 | 22.5 | 0.00 | 0.00 | 0.00 | 56 | 1016.1 |
| 20260504183012 | 9 | 203 | 9.7 | 29.0 | 0.00 | 0.00 | 0.00 | 52 | 1016.2 |
| 20260504181506 | 9 | 176 | 9.7 | 24.1 | 0.00 | 0.00 | 0.00 | 53 | 1016.2 |
| 20260504180004 | 10 | 272 | 8.0 | 19.3 | 0.00 | 0.00 | 0.00 | 38 | 1016.2 |
| 20260504174511 | 10 | 307 | 8.0 | 25.7 | 0.00 | 0.00 | 0.00 | 36 | 1016.2 |
| 20260504173013 | 10 | 274 | 4.8 | 14.5 | 0.00 | 0.00 | 0.00 | 37 | 1016.4 |
| 20260504171522 | 10 | 358 | 14.5 | 40.2 | 0.00 | 0.00 | 0.00 | 36 | 1016.3 |
| 20260504081514 | -3 | 85 | 0.0 | 0.0 | 0.00 | 0.00 | 0.00 | 86 | 1017.6 |
| 20260504050008 | -1 | 60 | 0.0 | 0.0 | 0.00 | 0.00 | 0.00 | 73 | 1018.9 |
| 20260504044515 | 0 | 34 | 0.0 | 0.0 | 0.00 | 0.00 | 0.00 | 70 | 1019.1 |
| 20260504043018 | 0 | 31 | 0.0 | 0.0 | 0.00 | 0.00 | 0.00 | 69 | 1019.2 |
| 20260504041522 | 0 | 31 | 0.0 | 0.0 | 0.00 | 0.00 | 0.00 | 68 | 1019.2 |
| 20260504040005 | 0 | 29 | 0.0 | 0.0 | 0.00 | 0.00 | 0.00 | 66 | 1019.3 |
| 20260504034509 | 1 | 64 | 0.0 | 0.0 | 0.00 | 0.00 | 0.00 | 65 | 1019.2 |
| 20260504033016 | 1 | 92 | 0.0 | 0.0 | 0.00 | 0.00 | 0.00 | 62 | 1019.2 |
| 20260504031518 | 2 | 92 | 0.0 | 0.0 | 0.00 | 0.00 | 0.00 | 58 | 1019.2 |
| 20260504030003 | 3 | 92 | 0.0 | 0.0 | 0.00 | 0.00 | 0.00 | 56 | 1019.1 |
| 20260504024507 | 3 | 92 | 0.0 | 0.0 | 0.00 | 0.00 | 0.00 | 52 | 1019.0 |
| 20260504023016 | 5 | 81 | 0.0 | 1.6 | 0.00 | 0.00 | 0.00 | 47 | 1018.8 |
| 20260504021516 | 7 | 70 | 0.0 | 0.0 | 0.00 | 0.00 | 0.00 | 38 | 1018.7 |
| 20260504020020 | 10 | 280 | 0.0 | 9.7 | 0.00 | 0.00 | 0.00 | 30 | 1018.8 |
| 20260504014506 | 10 | 301 | 4.8 | 14.5 | 0.00 | 0.00 | 0.00 | 29 | 1018.7 |
| 20260504013006 | 11 | 249 | 4.8 | 20.9 | 0.00 | 0.00 | 0.00 | 26 | 1018.7 |
| 20260504011519 | 11 | 290 | 9.7 | 16.1 | 0.00 | 0.00 | 0.00 | 26 | 1019.0 |
| 20260504010015 | 11 | 277 | 9.7 | 19.3 | 0.00 | 0.00 | 0.00 | 26 | 1019.0 |
| 20260504004521 | 12 | 307 | 11.3 | 19.3 | 0.00 | 0.00 | 0.00 | 24 | 1018.9 |
| 20260504003005 | 12 | 276 | 11.3 | 27.4 | 0.00 | 0.00 | 0.00 | 23 | 1019.1 |
| 20260504001509 | 12 | 233 | 11.3 | 25.7 | 0.00 | 0.00 | 0.00 | 22 | 1019.0 |
| 20260504000013 | 12 | 252 | 9.7 | 33.8 | 0.00 | 0.00 | 0.00 | 23 | 1019.0 |
| 20260503234520 | 12 | 179 | 12.9 | 37.0 | 0.00 | 0.00 | 0.00 | 22 | 1019.1 |
| 20260503233024 | 12 | 266 | 16.1 | 30.6 | 0.00 | 0.00 | 0.00 | 22 | 1019.2 |
| 20260503231513 | 12 | 233 | 9.7 | 25.7 | 0.00 | 0.00 | 0.00 | 23 | 1019.2 |
| 20260503230012 | 12 | 253 | 19.3 | 38.6 | 0.00 | 0.00 | 0.00 | 23 | 1019.6 |
| 20260503224516 | 12 | 313 | 9.7 | 29.0 | 0.00 | 0.00 | 0.00 | 25 | 1019.4 |
| 20260503223021 | 12 | 250 | 16.1 | 30.6 | 0.00 | 0.00 | 0.00 | 23 | 1019.3 |
| 20260503221524 | 12 | 289 | 16.1 | 32.2 | 0.00 | 0.00 | 0.00 | 21 | 1019.5 |
| 20260503220008 | 12 | 293 | 11.3 | 29.0 | 0.00 | 0.00 | 0.00 | 22 | 1019.7 |
| 20260503214513 | 12 | 295 | 14.5 | 27.4 | 0.00 | 0.00 | 0.00 | 23 | 1020.0 |
| 20260503213018 | 12 | 295 | 16.1 | 30.6 | 0.00 | 0.00 | 0.00 | 25 | 1020.1 |
| 20260503211502 | 12 | 214 | 11.3 | 33.8 | 0.00 | 0.00 | 0.00 | 24 | 1020.2 |
| 20260503210006 | 12 | 253 | 9.7 | 32.2 | 0.00 | 0.00 | 0.00 | 24 | 1020.1 |